Precipitable_Water
1.35 1.39 1.35 1.31 1.30 1.35 1.37 1.35 1.36 1.37 1.38 1.36 1.33 1.31 1.29 1.26 1.23 1.18 1.13 1.09 1.08 1.05 1.05 0.99 0.97 0.96 0.94 0.96 1.00 1.03 1.04 1.07
1.34 1.37 1.35 1.29 1.27 1.30 1.26 1.30 1.31 1.30 1.31 1.27 1.29 1.28 1.22 1.20 1.16 1.13 1.07 1.01 0.96 0.93 0.89 0.87 0.83 0.79 0.80 0.81 0.81 0.83 0.86 0.88
1.35 1.36 1.33 1.31 1.32 1.28 1.28 1.27 1.28 1.26 1.27 1.22 1.19 1.20 1.18 1.15 1.08 1.01 0.92 0.85 0.82 0.79 0.73 0.71 0.72 0.74 0.74 0.73 0.74 0.76 0.77 0.82
1.33 1.38 1.36 1.34 1.32 1.29 1.27 1.25 1.25 1.26 1.25 1.20 1.16 1.11 1.07 1.01 0.90 0.79 0.76 0.73 0.70 0.67 0.66 0.67 0.66 0.68 0.70 0.71 0.72 0.74 0.75 0.78
1.33 1.35 1.35 1.30 1.26 1.21 1.21 1.24 1.24 1.22 1.19 1.15 1.11 1.02 0.89 0.77 0.72 0.66 0.61 0.57 0.59 0.62 0.62 0.63 0.64 0.65 0.66 0.67 0.68 0.67 0.67 0.68
1.30 1.30 1.29 1.26 1.20 1.16 1.20 1.22 1.21 1.15 1.14 1.09 0.91 0.80 0.74 0.68 0.63 0.56 0.50 0.51 0.52 0.56 0.59 0.61 0.61 0.61 0.60 0.58 0.58 0.57 0.57 0.58
1.25 1.25 1.23 1.19 1.13 1.13 1.14 1.14 1.15 1.14 1.06 0.91 0.82 0.74 0.65 0.59 0.51 0.44 0.42 0.42 0.43 0.47 0.53 0.54 0.53 0.55 0.55 0.54 0.52 0.52 0.53 0.55
1.22 1.18 1.19 1.14 1.08 1.07 1.07 1.10 1.12 1.04 0.88 0.79 0.74 0.64 0.55 0.47 0.38 0.34 0.33 0.34 0.35 0.39 0.47 0.51 0.52 0.52 0.51 0.52 0.49 0.49 0.49 0.49
1.19 1.17 1.13 1.05 1.02 1.05 1.03 1.05 0.93 0.81 0.76 0.72 0.63 0.53 0.45 0.36 0.29 0.27 0.27 0.27 0.29 0.36 0.45 0.51 0.48 0.47 0.46 0.47 0.46 0.46 0.45 0.45
1.17 1.14 1.05 0.99 0.98 1.00 0.95 0.85 0.78 0.74 0.70 0.64 0.54 0.43 0.34 0.26 0.25 0.25 0.25 0.24 0.26 0.32 0.39 0.42 0.44 0.44 0.42 0.42 0.42 0.42 0.42 0.42
1.14 1.07 0.99 0.96 0.94 0.88 0.80 0.76 0.72 0.69 0.63 0.55 0.46 0.36 0.28 0.23 0.23 0.24 0.24 0.26 0.27 0.29 0.35 0.39 0.38 0.38 0.38 0.38 0.38 0.38 0.38 0.39
1.18 1.05 0.99 0.94 0.87 0.79 0.76 0.72 0.67 0.61 0.54 0.47 0.39 0.31 0.27 0.24 0.24 0.24 0.25 0.27 0.28 0.30 0.31 0.34 0.33 0.32 0.32 0.34 0.35 0.36 0.37 0.37
1.18 1.03 0.95 0.88 0.77 0.69 0.67 0.61 0.55 0.50 0.46 0.44 0.39 0.34 0.29 0.26 0.24 0.24 0.26 0.27 0.28 0.31 0.31 0.30 0.31 0.33 0.31 0.32 0.33 0.34 0.33 0.33
1.20 1.04 0.93 0.85 0.78 0.73 0.67 0.57 0.52 0.49 0.50 0.49 0.46 0.42 0.37 0.31 0.29 0.28 0.27 0.28 0.29 0.31 0.29 0.28 0.29 0.34 0.30 0.30 0.26 0.28 0.29 0.30
1.21 1.06 0.92 0.85 0.82 0.76 0.65 0.59 0.53 0.51 0.53 0.52 0.51 0.47 0.44 0.41 0.37 0.32 0.28 0.27 0.27 0.29 0.30 0.29 0.26 0.30 0.33 0.31 0.26 0.24 0.26 0.28
1.24 1.09 0.92 0.87 0.85 0.71 0.60 0.52 0.49 0.55 0.56 0.58 0.58 0.56 0.51 0.47 0.39 0.33 0.29 0.27 0.26 0.25 0.27 0.28 0.27 0.24 0.26 0.28 0.29 0.26 0.19 0.19
1.24 1.08 0.92 0.87 0.84 0.72 0.64 0.60 0.61 0.63 0.63 0.63 0.63 0.61 0.56 0.53 0.47 0.39 0.34 0.31 0.28 0.25 0.24 0.23 0.23 0.22 0.22 0.22 0.22 0.22 0.21 0.18
1.18 1.04 0.90 0.87 0.86 0.74 0.67 0.65 0.66 0.65 0.66 0.65 0.66 0.65 0.61 0.58 0.54 0.47 0.41 0.34 0.31 0.30 0.28 0.26 0.25 0.24 0.24 0.23 0.21 0.19 0.19 0.19
1.13 1.02 0.88 0.85 0.86 0.76 0.70 0.70 0.72 0.70 0.69 0.69 0.69 0.69 0.66 0.63 0.62 0.56 0.47 0.42 0.39 0.36 0.34 0.31 0.28 0.26 0.25 0.24 0.24 0.23 0.23 0.22
1.14 1.04 0.91 0.83 0.86 0.79 0.74 0.74 0.76 0.76 0.76 0.76 0.75 0.74 0.75 0.74 0.70 0.66 0.59 0.50 0.46 0.41 0.38 0.37 0.33 0.30 0.27 0.26 0.25 0.26 0.26 0.26
Wind_Speed
4 4 3 3 3 4 4 2 3 4 4 4 3 2 3 3 3 4 6 5 7 7 7 7 7 8 7 7 7 7 8 9
3 3 2 3 3 4 4 3 3 3 3 4 2 3 3 3 4 4 5 6 7 7 7 7 8 8 8 8 8 9 9 10
2 2 2 2 3 3 3 3 3 3 2 3 4 3 3 4 4 5 6 6 7 7 7 7 7 8 8 8 9 10 10 10
2 1 1 1 2 3 4 3 2 1 1 2 2 3 4 4 5 5 6 6 7 7 7 7 8 8 9 10 10 10 10 10
2 1 2 1 2 4 4 2 0 1 2 2 2 2 3 4 5 6 6 6 6 7 7 8 8 8 8 9 10 10 10 10
3 2 2 2 2 4 3 1 1 2 2 2 1 1 2 4 5 5 6 6 7 7 7 7 7 8 8 9 10 10 10 10
4 3 3 2 2 2 2 1 2 3 3 1 1 1 2 4 5 5 6 6 7 7 6 6 7 7 8 9 10 11 11 11
5 4 3 3 2 1 1 2 3 4 2 1 1 1 2 4 4 5 6 6 6 6 5 6 7 8 9 10 10 11 12 12
6 5 4 3 2 2 2 2 3 2 1 1 1 2 3 3 4 5 6 6 6 5 6 6 7 8 9 10 11 12 12 13
7 7 5 4 4 3 3 3 2 2 2 2 2 2 3 3 4 5 6 5 5 5 6 6 7 8 10 11 12 12 13 14
9 8 7 6 5 5 4 4 3 3 2 2 2 3 3 3 4 5 5 5 5 5 6 6 7 8 10 11 12 13 14 15
11 10 9 7 6 6 5 5 5 4 4 3 3 3 3 4 4 5 5 5 6 5 6 6 8 8 10 12 13 14 15 16
13 13 11 10 8 7 7 6 6 5 5 4 3 3 3 4 5 5 5 5 5 5 6 7 8 9 11 13 15 16 17 17
16 15 14 12 10 9 8 7 7 6 5 5 4 5 5 5 5 5 5 6 6 7 8 9 10 11 13 14 16 17 18 19
19 17 16 14 12 10 9 8 7 7 6 6 5 5 6 6 6 6 7 7 8 9 10 10 12 13 15 17 17 18 19 20
21 20 19 17 15 13 12 11 10 9 7 6 6 6 6 7 7 7 8 9 10 11 12 13 14 15 17 18 20 20 20 20
23 22 21 20 18 16 14 13 11 10 9 8 7 7 7 7 8 8 9 10 11 12 13 14 15 16 18 18 19 20 21 22
25 25 23 22 20 18 17 16 14 12 11 10 9 9 8 8 9 9 10 11 12 13 14 15 16 17 18 19 20 21 21 22
27 26 25 24 23 21 19 18 17 15 14 13 12 11 11 10 10 11 12 13 14 15 15 16 17 18 19 20 20 21 21 22
28 28 27 26 24 23 21 21 19 18 17 16 15 15 14 14 13 14 14 15 16 17 17 18 18 19 20 21 21 22 22 22
Wind_Direction
107 100 94 71 56 50 46 44 32 18 8 16 16 38 47 48 22 9 3 9 5 7 7 7 4 359 355 351 345 338 330 325
114 106 94 72 70 52 40 29 358 357 0 12 29 75 59 31 27 14 13 9 4 3 4 0 357 358 356 351 347 341 332 327
133 115 106 90 58 33 10 353 349 358 41 51 71 70 56 34 22 10 4 3 2 2 3 5 8 5 1 355 350 345 342 339
165 172 159 83 3 351 344 341 359 64 74 83 59 59 38 30 22 13 5 2 2 5 6 3 358 353 353 352 352 351 350 347
205 215 192 300 334 343 343 335 269 131 114 111 81 52 34 14 5 1 1 1 2 359 356 354 355 354 356 357 357 355 354 352
219 216 223 290 321 335 352 19 139 149 142 126 95 20 3 1 360 358 360 360 356 353 354 1 6 7 5 3 0 358 355 351
225 226 243 274 304 332 11 62 127 141 142 128 75 18 6 357 358 0 358 355 355 356 0 5 8 8 6 2 359 356 352 347
226 236 248 264 274 266 106 99 125 137 146 124 64 6 355 358 358 357 355 354 355 358 3 8 6 3 3 359 357 353 350 346
230 236 237 242 233 214 184 158 147 154 170 204 317 334 342 349 353 352 350 350 355 360 360 1 1 358 356 354 352 350 347 345
233 229 230 226 215 203 197 192 194 209 220 259 294 313 326 335 342 347 344 346 349 349 348 347 347 346 346 347 346 345 344 342
232 228 225 221 212 209 210 213 223 233 249 266 284 298 314 326 333 339 341 344 346 341 340 337 340 342 344 344 342 340 338 336
234 229 225 220 218 220 226 229 233 239 249 264 275 285 301 313 324 331 335 338 339 338 335 336 335 338 342 341 339 337 335 333
235 228 224 222 222 224 231 234 232 239 243 248 264 278 290 305 314 320 326 328 329 332 331 331 333 332 334 336 334 332 331 330
234 229 224 225 228 235 237 229 232 233 238 247 262 275 286 296 305 311 316 320 321 319 319 321 323 320 322 325 324 324 326 326
233 230 226 227 229 233 233 231 228 234 241 251 262 274 285 291 297 303 307 310 312 313 314 315 316 317 317 320 322 321 321 320
233 230 228 229 230 232 231 232 229 237 239 247 259 273 283 290 294 300 304 308 310 311 308 308 311 312 316 317 316 317 318 318
232 231 230 231 231 233 234 234 236 236 239 245 261 272 280 285 289 296 301 306 308 310 310 311 311 310 313 314 316 317 317 316
232 231 231 231 232 233 234 234 234 237 241 248 259 269 276 283 287 292 298 302 305 308 310 310 311 311 311 311 312 314 315 317
231 230 231 231 232 233 234 236 237 240 244 251 257 265 275 278 284 290 296 298 302 305 307 309 309 309 310 311 312 314 316 317
230 230 231 230 232 235 236 238 241 244 248 254 260 264 271 273 279 286 294 295 298 301 302 304 307 309 310 310 311 313 315 316